Weather History for Kankakee, IL

Change the Weather History Date:

Monday, April 14, 2014

  Actual Average Record
Temperature  
Mean Temperature 48 °F -  
Max Temperature 63 °F 60 °F 86 °F (2003)
Min Temperature 32 °F 38 °F 24 °F (2004)
Degree Days  
Heating Degree Days 18    
Moisture  
Dew Point 43 °F    
Average Humidity 89    
Maximum Humidity 99    
Minimum Humidity 72    
Precipitation  
Precipitation 0.09 in - - ()
Sea Level Pressure  
Sea Level Pressure 29.68 in    
Wind  
Wind Speed 19 mph (WNW)    
Max Wind Speed 30 mph    
Max Gust Speed 40 mph    
Visibility 8 miles    
Events Rain , Snow    
Averages and records for this station are not official NWS values.
T = Trace of Precipitation, MM = Missing Value Source: NWS Daily Summary

Daily Weather History Graph

Daily Weather History Graph

Search for Another Location

Airport:

Trip Planner

Search our weather history database for the weather conditions in past years. The results will help you decide how hot, cold, wet, or windy it might be!

Date:

Astronomy

Apr. 14, 2014 Rise Set
Actual Time 6:13 AM CDT 7:30 PM CDT
Civil Twilight 5:45 AM CDT 7:58 PM CDT
Nautical Twilight 5:11 AM CDT 8:33 PM CDT
Astronomical Twilight 4:35 AM CDT 9:09 PM CDT
Moon 7:08 PM CDT (4/14) 5:46 AM CDT (4/14)
Length of Visible Light 14h 13m
Length of Day
13h 16m
Full, 100% of the Moon is Illuminated
Apr 14
Full
Apr 15
Full
Apr 22
Last Quarter
Apr 29
New
May 6
First Quarter

Hourly Weather History & Observations

Time (CDT) Temp. Windchill Dew Point Humidity Pressure Visibility Wind Dir Wind Speed Gust Speed Precip Events Conditions
12:06 AM 62.6 °F - 60.8 °F 94% 29.46 in 10.0 mi South 29.9 mph 40.3 mph N/A Rain Light Rain
12:15 AM 63.1 °F - 59.9 °F 89% 29.47 in 10.0 mi South 25.3 mph 40.3 mph N/A   Unknown
12:26 AM 62.6 °F - 60.8 °F 94% 29.47 in 10.0 mi South 19.6 mph 28.8 mph N/A   Unknown
12:35 AM 62.8 °F - 59.9 °F 90% 29.47 in 10.0 mi South 21.9 mph 29.9 mph N/A   Unknown
12:55 AM 62.8 °F - 59.5 °F 89% 29.46 in 10.0 mi South 20.7 mph 29.9 mph N/A   Unknown
1:07 AM 62.6 °F - 60.8 °F 94% 29.45 in 10.0 mi South 20.7 mph 25.3 mph N/A   Unknown
1:15 AM 62.8 °F - 59.5 °F 89% 29.44 in 10.0 mi South 19.6 mph 27.6 mph N/A   Unknown
1:27 AM 62.6 °F - 59.0 °F 88% 29.42 in 10.0 mi South 18.4 mph 26.5 mph N/A   Unknown
1:35 AM 62.6 °F - 59.2 °F 89% 29.41 in 10.0 mi South 24.2 mph 29.9 mph N/A   Unknown
1:47 AM 62.6 °F - 59.0 °F 88% 29.41 in 10.0 mi South 19.6 mph 29.9 mph N/A   Unknown
1:55 AM 62.6 °F - 59.0 °F 88% 29.42 in 10.0 mi South 20.7 mph 27.6 mph N/A   Unknown
2:07 AM 62.6 °F - 59.0 °F 88% 29.43 in 10.0 mi South 18.4 mph 29.9 mph N/A   Unknown
2:15 AM 62.6 °F - 59.4 °F 89% 29.43 in 10.0 mi South 25.3 mph 33.4 mph N/A   Unknown
2:26 AM 62.6 °F - 59.0 °F 88% 29.43 in 10.0 mi South 24.2 mph 33.4 mph N/A   Unknown
2:35 AM 62.6 °F - 59.2 °F 89% 29.43 in 10.0 mi South 24.2 mph 33.4 mph N/A   Unknown
2:46 AM 62.6 °F - 59.0 °F 88% 29.42 in 10.0 mi South 27.6 mph 36.8 mph N/A   Unknown
2:55 AM 62.6 °F - 59.0 °F 88% 29.42 in 10.0 mi SSW 26.5 mph 36.8 mph N/A   Unknown
3:07 AM 60.8 °F - 59.0 °F 94% 29.44 in 4.0 mi SW 25.3 mph 34.5 mph 0.02 in Rain Light Rain
3:15 AM 61.0 °F - 58.5 °F 91% 29.44 in 7.0 mi SW 23.0 mph 33.4 mph 0.02 in   Unknown
3:27 AM 60.8 °F - 55.4 °F 82% 29.44 in 10.0 mi WSW 20.7 mph 28.8 mph 0.02 in   Unknown
3:35 AM 59.0 °F - 54.1 °F 84% 29.44 in 10.0 mi SW 25.3 mph 35.7 mph 0.02 in   Unknown
3:46 AM 57.2 °F - 53.6 °F 88% 29.44 in 10.0 mi SW 20.7 mph 27.6 mph 0.02 in   Unknown
3:55 AM 58.1 °F - 54.0 °F 86% 29.44 in 10.0 mi SW 20.7 mph 27.6 mph 0.02 in   Unknown
4:07 AM 57.2 °F - 53.6 °F 88% 29.45 in 10.0 mi SW 24.2 mph 29.9 mph N/A   Unknown
4:15 AM 57.4 °F - 53.1 °F 85% 29.45 in 10.0 mi SW 23.0 mph 32.2 mph N/A   Unknown
4:26 AM 57.2 °F - 53.6 °F 88% 29.47 in 10.0 mi SW 24.2 mph 29.9 mph N/A   Unknown
4:35 AM 56.1 °F - 51.8 °F 85% 29.48 in 10.0 mi SW 25.3 mph 36.8 mph N/A   Unknown
4:46 AM 55.4 °F - 51.8 °F 88% 29.49 in 10.0 mi SW 20.7 mph 36.8 mph N/A   Unknown
4:55 AM 54.3 °F - 50.0 °F 85% 29.50 in 10.0 mi SW 21.9 mph 33.4 mph N/A   Unknown
5:07 AM 53.6 °F - 50.0 °F 88% 29.51 in 10.0 mi WSW 28.8 mph 38.0 mph N/A   Unknown
5:15 AM 52.7 °F - 48.9 °F 87% 29.52 in 10.0 mi WSW 23.0 mph 38.0 mph N/A   Unknown
5:27 AM 51.8 °F - 48.2 °F 88% 29.53 in 10.0 mi WSW 24.2 mph 34.5 mph N/A   Unknown
5:35 AM 51.1 °F - 48.0 °F 89% 29.53 in 10.0 mi WSW 23.0 mph 31.1 mph N/A   Unknown
5:47 AM 50.0 °F - 48.2 °F 94% 29.54 in 10.0 mi WSW 24.2 mph 29.9 mph N/A   Unknown
5:55 AM 49.8 °F - 47.1 °F 90% 29.55 in 10.0 mi WSW 21.9 mph 33.4 mph N/A   Unknown
6:06 AM 48.2 °F - 46.4 °F 93% 29.56 in 10.0 mi WSW 20.7 mph 29.9 mph N/A Rain Light Rain
6:15 AM 48.2 °F - 46.4 °F 93% 29.57 in 7.0 mi West 18.4 mph 27.6 mph N/A Rain Light Rain
6:27 AM 46.4 °F 39.2 °F 44.6 °F 93% 29.58 in 10.0 mi West 18.4 mph 25.3 mph N/A Rain Light Rain
6:35 AM 45.7 °F 39.1 °F 43.9 °F 93% 29.59 in 10.0 mi WNW 15.0 mph 24.2 mph N/A   Unknown
6:46 AM 44.6 °F 37.8 °F 42.8 °F 93% 29.60 in 10.0 mi West 15.0 mph 19.6 mph N/A   Unknown
6:55 AM 44.6 °F 37.8 °F 42.8 °F 93% 29.61 in 10.0 mi WNW 15.0 mph 19.6 mph N/A Rain Light Rain
7:06 AM 44.6 °F 38.8 °F 42.8 °F 93% 29.62 in 10.0 mi WNW 11.5 mph 18.4 mph N/A   Unknown
7:15 AM 44.6 °F 38.4 °F 41.4 °F 88% 29.62 in 10.0 mi NW 12.7 mph 17.3 mph N/A   Unknown
7:26 AM 44.6 °F 38.8 °F 41.0 °F 87% 29.63 in 10.0 mi NW 11.5 mph 16.1 mph N/A   Unknown
7:35 AM 44.1 °F 37.7 °F 40.3 °F 87% 29.64 in 10.0 mi NNW 12.7 mph 21.9 mph N/A   Unknown
7:46 AM 44.6 °F 38.8 °F 39.2 °F 81% 29.65 in 10.0 mi NW 11.5 mph 20.7 mph N/A   Light Drizzle
7:55 AM 43.0 °F 36.8 °F 39.4 °F 87% 29.66 in 10.0 mi NNW 11.5 mph 17.3 mph N/A   Light Drizzle
8:15 AM 42.3 °F 35.9 °F 39.2 °F 89% 29.69 in 10.0 mi NNW 11.5 mph 19.6 mph N/A   Drizzle
8:35 AM 42.1 °F 36.1 °F 39.2 °F 90% 29.70 in 10.0 mi North 10.4 mph - N/A Rain Rain
8:55 AM 42.1 °F 37.1 °F 39.6 °F 91% 29.72 in 7.0 mi North 8.1 mph - 0.01 in   Drizzle
9:15 AM 42.4 °F 38.8 °F 40.3 °F 92% 29.72 in 7.0 mi North 5.8 mph - N/A   Drizzle
9:35 AM 41.9 °F 35.4 °F 39.2 °F 90% 29.74 in 10.0 mi NNW 11.5 mph 17.3 mph 0.01 in   Unknown
9:55 AM 41.0 °F 34.7 °F 38.3 °F 90% 29.75 in 7.0 mi NNW 10.4 mph 19.6 mph 0.01 in Rain Light Rain
10:15 AM 40.3 °F 33.0 °F 38.1 °F 92% 29.77 in 5.0 mi NNW 12.7 mph 18.4 mph N/A   Mist
10:35 AM 40.3 °F 33.4 °F 37.8 °F 91% 29.79 in 7.0 mi North 11.5 mph 17.3 mph N/A   Unknown
10:55 AM 40.6 °F 33.4 °F 35.6 °F 82% 29.80 in 10.0 mi North 12.7 mph 20.7 mph N/A   Unknown
11:15 AM 40.6 °F 33.8 °F 35.6 °F 82% 29.82 in 10.0 mi North 11.5 mph 17.3 mph N/A   Unknown
11:35 AM 40.5 °F 35.8 °F 36.5 °F 86% 29.82 in 10.0 mi North 6.9 mph - N/A   Unknown
11:55 AM 40.1 °F 34.1 °F 36.9 °F 88% 29.82 in 10.0 mi North 9.2 mph - N/A   Unknown
12:35 PM 42.1 °F 35.2 °F 35.4 °F 77% 29.82 in 10.0 mi North 12.7 mph 18.4 mph N/A   Unknown
12:55 PM 41.4 °F 35.2 °F 35.6 °F 80% 29.82 in 10.0 mi North 10.4 mph - N/A   Unknown
1:15 PM 42.4 °F 36.1 °F 35.8 °F 77% 29.83 in 10.0 mi North 11.5 mph 16.1 mph N/A   Unknown
1:35 PM 42.4 °F 36.1 °F 34.2 °F 72% 29.83 in 10.0 mi NNE 11.5 mph 19.6 mph N/A   Unknown
1:55 PM 41.9 °F 36.9 °F 34.9 °F 76% 29.83 in 10.0 mi NNW 8.1 mph - N/A   Unknown
2:15 PM 41.9 °F 35.9 °F 34.9 °F 76% 29.83 in 10.0 mi North 10.4 mph - N/A   Unknown
2:35 PM 42.1 °F 37.1 °F 34.3 °F 74% 29.83 in 10.0 mi North 8.1 mph - N/A   Unknown
2:55 PM 42.8 °F 37.0 °F 35.6 °F 76% 29.84 in 10.0 mi NNW 10.4 mph - N/A   Unknown
3:15 PM 40.5 °F 35.1 °F 34.7 °F 80% 29.85 in 10.0 mi NNW 8.1 mph 17.3 mph N/A Rain Light Rain
3:35 PM 40.1 °F 34.1 °F 35.4 °F 83% 29.84 in 7.0 mi North 9.2 mph - N/A   Drizzle
3:55 PM 40.1 °F 34.7 °F 35.8 °F 85% 29.85 in 5.0 mi North 8.1 mph - N/A   Drizzle
4:15 PM 39.4 °F 31.8 °F 36.5 °F 89% 29.85 in 3.0 mi NW 12.7 mph 18.4 mph 0.01 in Rain Rain
4:35 PM 37.9 °F 30.9 °F 36.0 °F 93% 29.85 in 3.0 mi NW 10.4 mph - 0.02 in   Drizzle
4:55 PM 37.4 °F 29.8 °F 35.4 °F 93% 29.86 in 3.0 mi NW 11.5 mph 18.4 mph 0.03 in   Drizzle
5:15 PM 36.5 °F 28.2 °F 34.9 °F 94% 29.87 in 3.0 mi NW 12.7 mph 20.7 mph N/A   Light Drizzle
5:35 PM 35.6 °F 27.1 °F 34.0 °F 94% 29.88 in 3.0 mi NNW 12.7 mph 21.9 mph N/A   Drizzle
5:55 PM 35.6 °F 28.0 °F 33.8 °F 93% 29.89 in 3.0 mi NNW 10.4 mph 16.1 mph N/A   Drizzle
6:15 PM 34.7 °F 27.5 °F 33.3 °F 94% 29.91 in 3.0 mi NW 9.2 mph 17.3 mph N/A Rain Light Rain
6:35 PM 33.8 °F 27.0 °F 32.2 °F 94% 29.92 in 1.8 mi NW 8.1 mph 11.5 mph 0.01 in   Unknown
6:55 PM 32.9 °F 23.7 °F 32.0 °F 96% 29.92 in 1.2 mi NW 12.7 mph 18.4 mph 0.02 in Snow Light Snow
7:15 PM 32.9 °F 26.7 °F 32.0 °F 96% 29.93 in 0.8 mi NW 6.9 mph - N/A Snow Light Snow
7:35 PM 32.2 °F 23.2 °F 31.8 °F 99% 29.95 in 1.2 mi NW 11.5 mph 18.4 mph N/A Snow Light Snow
7:55 PM 32.2 °F 24.4 °F 31.6 °F 98% 29.95 in 2.0 mi NW 9.2 mph - N/A Snow Light Snow
8:15 PM 32.0 °F 23.0 °F 31.1 °F 96% 29.95 in 2.0 mi NNW 11.5 mph 19.6 mph N/A Snow Light Snow
8:35 PM 32.0 °F 23.6 °F 31.1 °F 96% 29.96 in 2.5 mi NNW 10.4 mph 16.1 mph N/A Snow Light Snow
8:55 PM 32.0 °F 23.0 °F 31.1 °F 96% 29.96 in 3.0 mi NNW 11.5 mph 18.4 mph N/A Snow Light Snow
9:15 PM 32.0 °F 23.6 °F 30.9 °F 96% 29.97 in 2.5 mi NNW 10.4 mph 17.3 mph N/A Snow Light Snow
9:35 PM 32.0 °F 23.6 °F 30.7 °F 95% 29.96 in 3.0 mi NNW 10.4 mph 18.4 mph N/A Snow Light Snow
9:55 PM 32.0 °F 24.8 °F 30.6 °F 94% 29.96 in 5.0 mi NNW 8.1 mph - N/A   Unknown
10:15 PM 32.0 °F 25.6 °F 30.4 °F 94% 29.97 in 7.0 mi NNW 6.9 mph - N/A   Unknown
10:35 PM 32.0 °F 23.0 °F 30.0 °F 92% 29.97 in 10.0 mi NW 11.5 mph 16.1 mph N/A   Unknown
10:55 PM 32.0 °F 24.8 °F 29.8 °F 92% 29.99 in 10.0 mi NW 8.1 mph 17.3 mph N/A   Unknown
11:15 PM 32.0 °F 25.6 °F 30.0 °F 92% 29.99 in 7.0 mi NW 6.9 mph - N/A   Unknown
11:35 PM 32.0 °F 23.0 °F 29.7 °F 91% 29.99 in 7.0 mi NW 11.5 mph - N/A Snow Light Snow
11:55 PM 32.0 °F 23.6 °F 30.2 °F 93% 30.00 in 10.0 mi NW 10.4 mph - N/A Snow Light Snow